Theta_e
333 328 325 329 322 317 313 310 309 309 314 312 311 311 311 311 311 312 312 313 313 313 314 319 319 318 318 317 316 316 316 316
327 322 324 328 320 315 311 310 309 313 313 313 314 313 312 313 311 312 313 313 314 314 317 319 320 319 318 318 317 315 315 314
325 326 330 325 318 313 311 310 312 315 316 323 320 323 324 318 314 312 313 314 316 320 320 320 319 318 318 317 316 315 314 314
327 328 326 320 316 312 311 312 317 318 325 326 325 327 325 322 323 321 320 321 322 321 321 320 319 318 316 315 314 314 313 312
327 327 325 319 314 311 314 321 321 322 326 327 325 327 325 326 325 322 322 322 321 321 320 319 319 317 316 315 314 312 311 310
327 330 328 321 313 316 322 325 325 327 325 328 329 325 325 323 323 323 321 321 321 321 320 320 319 318 315 313 312 311 310 310
330 329 324 318 322 326 328 326 326 324 323 326 324 325 326 324 323 322 322 321 320 319 320 320 315 312 311 311 311 311 310 309
329 327 322 323 325 325 328 325 326 323 326 323 324 322 321 320 320 321 319 319 319 317 318 316 312 310 310 310 309 308 308 309
325 326 322 324 325 328 327 326 324 325 321 319 319 319 319 319 320 319 318 318 319 318 315 311 310 310 309 308 306 305 305 304
317 321 325 324 323 327 326 323 322 319 317 319 321 321 321 320 320 317 317 315 312 310 310 311 311 308 304 301 302 302 301 299
321 321 324 323 323 323 321 318 317 317 318 320 320 320 320 320 317 315 314 311 310 311 311 310 304 303 301 300 300 301 301 299
322 324 325 326 323 320 318 319 319 320 319 321 319 318 316 314 313 313 311 311 311 310 306 302 301 300 300 300 299 298 298 299
325 325 327 325 322 320 320 323 320 320 320 320 317 314 313 313 312 312 311 310 307 303 301 301 300 300 300 299 297 299 298 299
328 326 327 327 322 322 323 323 321 320 319 317 314 313 312 312 311 311 308 304 301 301 300 299 300 301 300 299 299 298 298 298
330 329 325 326 325 324 325 321 319 318 317 313 313 312 312 310 308 305 304 304 303 302 300 299 301 301 301 299 299 298 298 296
330 329 327 326 325 326 323 321 319 318 315 315 313 312 308 307 307 306 304 304 303 302 300 299 299 300 300 299 298 298 297 296
329 328 327 325 324 323 322 320 319 317 316 314 313 308 306 307 306 305 304 303 302 299 295 298 300 300 300 300 298 297 296 296
328 328 325 324 324 323 321 320 319 316 314 313 308 306 306 305 304 304 303 301 296 293 294 296 299 300 299 298 297 297 297 296
328 328 325 324 321 321 320 319 317 316 314 309 308 307 305 304 303 301 298 295 294 293 295 297 298 298 297 298 297 297 296 296
327 325 324 322 321 319 319 316 314 313 309 309 309 308 305 300 299 296 296 296 294 293 293 295 296 298 298 297 296 296 295 296
Wind_Speed
29 27 23 16 18 16 14 13 15 16 16 16 17 17 17 16 15 13 12 12 12 13 13 14 15 16 14 11 14 16 16 18
19 24 19 17 16 14 14 14 16 18 18 18 16 15 13 11 9 10 9 9 9 11 11 10 11 10 11 10 10 13 10 14
29 19 19 19 18 17 16 17 18 19 18 17 14 13 13 11 9 7 7 7 8 11 10 5 6 11 13 12 15 16 10 11
19 20 19 19 18 17 16 18 19 20 18 15 11 9 6 7 8 10 8 9 7 10 6 9 11 14 16 17 18 18 11 14
27 22 22 18 18 19 19 21 21 18 14 16 11 8 4 1 3 8 7 8 7 6 4 1 4 7 8 13 17 16 20 13
26 25 20 15 18 20 20 19 17 14 13 13 14 13 10 10 10 8 11 7 4 3 6 4 7 11 13 14 13 16 14 10
29 25 19 23 23 22 20 18 13 15 15 13 13 10 8 7 6 8 10 7 7 8 8 11 15 14 13 12 12 13 14 14
30 26 24 21 21 20 23 18 20 17 12 8 8 7 6 10 12 11 10 12 11 10 13 15 17 15 12 14 16 16 19 19
32 27 27 24 26 24 22 22 20 15 8 3 2 10 12 12 8 8 8 10 11 12 15 17 15 13 17 15 15 14 17 20
27 31 26 26 26 23 22 22 16 11 5 8 3 9 8 8 8 6 8 8 12 15 16 15 13 18 16 13 14 19 20 18
26 30 27 24 22 22 24 17 10 10 13 5 7 8 10 10 6 6 8 12 12 13 14 15 18 17 20 19 16 15 17 11
25 26 25 23 24 27 21 11 11 15 12 5 9 10 8 5 6 9 10 10 12 13 16 17 19 23 22 22 18 18 8 10
26 25 25 25 30 28 19 11 10 10 10 11 9 8 7 7 10 9 8 10 12 16 17 20 22 24 25 23 27 5 13 11
27 24 26 26 33 26 19 13 12 13 11 10 10 9 9 10 10 12 13 15 17 18 19 21 20 21 23 26 12 23 5 13
24 19 19 26 28 20 14 11 16 15 12 12 12 10 6 7 11 13 14 16 18 19 20 21 20 21 23 16 10 7 30 21
20 15 17 20 23 20 22 21 21 16 12 12 11 5 6 8 12 15 17 19 21 22 23 20 21 21 23 18 18 22 28 27
16 16 19 22 23 25 25 20 20 18 18 15 6 4 5 12 14 15 18 20 22 25 20 17 16 21 22 21 23 26 23 24
21 21 21 22 22 24 27 25 26 24 24 16 11 13 12 14 18 20 23 24 22 19 17 16 17 20 22 27 24 23 23 22
26 23 25 28 29 25 27 25 27 26 21 18 13 13 17 17 20 22 23 20 19 17 17 16 18 22 26 25 23 24 22 25
25 29 30 32 31 28 27 24 23 22 21 16 13 14 17 19 22 21 18 21 18 18 16 16 16 17 20 20 20 23 24 24
Wind_Direction
134 121 119 136 145 142 128 121 125 125 120 116 115 112 110 108 106 100 93 86 80 69 54 52 48 46 53 51 49 41 27 12
149 122 150 160 152 144 127 135 133 127 123 113 105 101 106 100 106 102 92 83 68 58 50 55 47 44 24 12 22 27 14 10
125 144 157 161 152 144 141 138 130 128 123 118 114 111 103 80 81 77 76 71 73 59 60 43 15 2 352 349 340 355 349 340
149 153 157 159 148 138 136 135 134 130 124 122 119 101 90 68 82 83 72 69 73 53 42 8 346 350 350 343 346 350 352 336
154 154 168 160 149 143 140 135 135 141 139 140 137 124 134 89 124 84 78 86 74 89 64 43 332 340 334 329 332 340 340 352
153 161 148 155 155 141 143 146 146 150 165 170 159 170 158 120 143 140 116 127 149 252 252 269 321 312 319 327 328 330 339 330
156 158 146 144 141 149 156 155 167 182 186 178 174 170 167 168 179 194 211 227 286 277 264 269 303 313 311 314 314 319 314 309
162 164 156 159 161 169 163 173 191 197 166 147 164 163 191 226 248 233 240 253 266 281 290 300 309 310 315 300 305 299 296 302
169 164 168 173 172 174 178 195 199 184 158 8 272 227 246 239 228 232 249 270 278 287 289 297 302 300 310 307 309 302 300 310
167 169 172 177 184 180 192 198 193 184 228 340 189 214 211 207 207 245 268 282 285 286 296 304 293 306 314 315 303 307 313 337
167 174 179 184 187 189 193 196 204 271 290 306 168 182 193 205 213 241 262 275 286 294 293 296 312 321 326 325 321 319 326 327
178 179 184 186 189 188 198 219 252 266 257 221 191 187 183 220 248 257 268 284 291 287 302 316 319 321 323 320 321 319 346 313
186 184 190 193 188 194 200 242 239 217 184 218 185 169 195 235 263 281 289 292 306 313 315 319 322 319 320 320 323 340 319 292
186 193 195 197 194 201 217 246 211 202 189 196 195 212 218 222 237 258 289 305 312 317 318 319 321 322 324 324 327 324 324 299
199 198 199 200 197 206 212 182 176 188 197 206 203 217 249 288 307 311 309 310 315 320 323 322 317 314 313 313 322 299 319 323
200 195 205 191 192 190 199 195 192 202 214 213 201 230 287 304 284 289 299 307 308 312 312 308 309 306 309 296 300 298 311 313
201 199 190 177 177 186 195 200 206 209 208 197 203 266 250 276 283 285 287 288 296 300 302 301 305 304 301 297 299 297 297 294
191 190 182 178 185 192 196 203 209 192 183 188 196 200 223 252 261 273 280 288 294 299 305 300 303 299 299 298 303 299 297 288
189 189 183 182 193 194 204 207 203 203 208 212 208 230 244 258 273 280 288 296 303 302 300 294 296 296 299 304 299 300 294 286
185 184 188 194 202 205 206 204 201 209 217 233 240 257 257 268 275 283 295 303 305 309 307 298 296 293 292 293 296 296 297 283